Regional Weather Roundup
Issued by NWS Wakefield, VA

Home | Current Version | Previous Version | Graphics & Text | Print | Product List | Glossary On
Versions: 1 2 3 4 5 6 7 8 9 10 11 12 13 14 15 16 17 18 19 20 21 22 23 24 25 26 27 28 29 30 31 32 33 34 35 36 37 38 39 40 41 42 43 44 45 46 47 48 49 50
000
ASUS41 KAKQ 201510
RWRAKQ

REGIONAL WEATHER ROUNDUP
NATIONAL WEATHER SERVICE WAKEFIELD VA
1000 AM EST SAT DEC 20 2014

Note: "fair" indicates few or no clouds below 12,000 feet with no
significant weather and/or obstructions to visibility. * = Denotes
station may not report precipitation (e.g., rain,snow,etc.),
thunder or fog.

VAZ042-051-052>054-056-201600-
NORTHERN VIRGINIA

CITY           SKY/WX    TMP DP  RH WIND       PRES   REMARKS
WASH NATIONAL  CLOUDY    36  21  54 N6        30.35R
DULLES         CLOUDY    30  21  69 NW5       30.33R
FORT BELVOIR   CLOUDY    31  24  74 VRB1      30.34S
QUANTICO       CLOUDY    32  22  66 NE6       30.35S
FREDERICKSBRG* PTSUNNY   32  26  80 CALM      30.33S
STAFFORD*      PTSUNNY   31  23  73 CALM      30.37F
WARRENTON      CLOUDY    30  30  97 CALM      30.32S
CULPEPER*      PTSUNNY   28  27  93 CALM      30.33R
MANASSAS*      SUNNY     27  27 100 CALM      30.34
LEESBURG*      CLOUDY    32  27  80 CALM      30.34R
WINCHESTER     CLOUDY    30  21  69 CALM      30.30S
FRONT ROYAL*   PTSUNNY   28  25  86 CALM      30.29F
LURAY*         PTSUNNY   30  28  93 CALM      30.29S
$$

VAZ048-049-060>072-079>083-201600-
CENTRAL AND SOUTH CENTRAL VIRGINIA

CITY           SKY/WX    TMP DP  RH WIND       PRES   REMARKS
RICHMOND       CLOUDY    35  22  58 NE7       30.32S
CHESTERFIELD*  CLOUDY    34  16  47 NE7       30.33S
PETERSBURG*    CLOUDY    35  25  64 NE8       30.33S
HANOVER        CLOUDY    32  23  69 CALM      30.34F
TAPPAHANNOCK*  CLOUDY    32  22  66 CALM      30.33S
QUINTON*       CLOUDY    33  23  67 NE3       30.33S
CHARLOTTSVILLE PTSUNNY   32  25  75 S5        30.30R
GORDONSVILLE*  PTSUNNY   30  25  82 CALM      30.31R
ORANGE*        CLOUDY    32  28  86 CALM      30.33R
LOUISA*        CLOUDY    30  25  80 CALM      30.30R
BUMPASS*       PTSUNNY   31  24  76 CALM      30.32R
FARMVILLE*     CLOUDY    34  32  90 CALM      30.31S
CREWE*         CLOUDY    32  24  73 CALM      30.32R
FORT PICKETT*  CLOUDY    33  24  70 NE5       30.32R
CHASE CITY*    CLOUDY    35  26  70 CALM      30.32R
CLARKSVILLE*   CLOUDY    34  25  69 E5        30.32R
SOUTH HILL*    CLOUDY    33  24  69 N5        30.37R
LAWRENCEVILLE* CLOUDY    33  24  69 NE6       30.32R
EMPORIA*       CLOUDY    34  27  75 N5        30.34S
$$

VAZ088>098-201600-
SOUTHEAST VIRGINIA

CITY           SKY/WX    TMP DP  RH WIND       PRES   REMARKS
NORFOLK        CLOUDY    39  28  64 NE7       30.31S
VIRGINIA BEACH CLOUDY    40  28  62 NE7       30.31S
NORFOLK NAVAL  CLOUDY    41  30  65 N10       30.33S
WEST POINT*    CLOUDY    36  26  69 CALM      30.35R
SALUDA*        FAIR      34  24  68 N6        30.32F
NEWPORT NEWS   CLOUDY    39  27  62 N7        30.32S
LANGLEY AFB    CLOUDY    37  28  70 N8        30.33S
FORT EUSTIS    CLOUDY    37  25  63 NE3       30.30F
WILLIAMSBURG*  CLOUDY    37  28  70 NE5       30.33F
HR EXEC AP*    CLOUDY    37  28  70 N5        30.34S
FRANKLIN*      CLOUDY    34  27  75 N3        30.33R
WAKEFIELD      CLOUDY    36  25  64 NE5       30.33S
$$

VAZ020-022-025-037-045-201600-
WEST CENTRAL AND SOUTHWEST VIRGINIA

CITY           SKY/WX    TMP DP  RH WIND       PRES   REMARKS
STAUNTON*      PTSUNNY   28  23  80 CALM      30.29R
WAYNESBORO*    CLOUDY    28  22  79 CALM      30.25S
HOT SPRINGS VA CLOUDY    29  23  78 SW12      30.10S WCI  20
LYNCHBURG      CLOUDY    31  23  72 S5        30.31R
DANVILLE       CLOUDY    35  24  64 VRB5      30.31S
SOUTH BOSTON*  CLOUDY    33  25  71 CALM      30.32F
MARTINSVILLE   CLOUDY    34  26  70 CALM      30.31R
ROANOKE        CLOUDY    33  24  69 SE7       30.30R
BLACKSBURG     CLOUDY    30  26  82 E3        30.25S
DUBLIN*        CLOUDY    31  29  93 CALM      30.23S
MARION*        CLOUDY    33  30  88 E5        30.21S
HILLSVILLE*    CLOUDY    33  25  74 S5        30.19R
RICHLANDS*     CLOUDY    32  29  89 CALM      30.17R
WISE*          CLOUDY    32  32 100 CALM      30.17S
ABINGDON*      CLOUDY    37  33  87 E3        30.18S
$$

MDZ021>025-VAZ099-100-201600-
SOUTHERN MARYLAND AND THE DELMARVA PENINSULA

CITY           SKY/WX    TMP DP  RH WIND       PRES   REMARKS
PATUXENT RIVER CLOUDY    33  22  63 NW8       30.33S
BAY BRIDGE APT   N/A     34  25  69 N6        30.33R
LEONARDTOWN    CLOUDY    32  23  69 CALM      30.34S
DOVER          CLOUDY    35  27  74 N8        30.29R
GEORGETOWN     PTSUNNY   35  24  64 N3        30.32R
EASTON         SUNNY     34  28  80 CALM      30.36R
CAMBRIDGE      CLOUDY    36  27  69 N5        30.32S
SALISBURY      CLOUDY    35  26  69 NW3       30.33R
OCEAN CITY     CLOUDY    31  25  78 NW6       30.33R
WALLOPS ISLAND CLOUDY    32  25  75 N6        30.33R
ACCOMACK*      CLOUDY    34  25  69 N3        30.33S
$$

NCZ012>017-030>032-201600-
NORTH CENTRAL AND EASTERN NORTH CAROLINA

CITY           SKY/WX    TMP DP  RH WIND       PRES   REMARKS
ROANOKE RAPIDS CLOUDY    34  27  75 CALM      30.32R
RALEIGH        CLOUDY    33  28  81 NE7       30.31R
ELIZABETH CITY CLOUDY    41  30  65 N7        30.32S
AHOSKIE*       CLOUDY    34  28  77 N5        30.32S
EDENTON*         N/A     36  31  82 NE5       30.31S
CURRITUCK*     CLOUDY    37  30  75 N3        30.32F
KILL DEVIL HLS CLOUDY    42  34  75 CALM      30.29S
MANTEO         CLOUDY    41  35  77 N8        30.31R
CAPE HATTERAS  CLOUDY    44  37  76 N7        30.29S
TARBORO*       NOT AVBL
GOLDSBORO      PTSUNNY   37  37  97 NE2       30.28R
WASHINGTON     CLOUDY    37  32  81 NE5       30.30S
GREENVILLE     PTSUNNY   37  32  81 NE3       30.31R
NEW BERN       CLOUDY    42  36  79 NE8       30.29S
WILMINGTON     LGT RAIN  43  41  93 NE9       30.25R
$$

VAZ048-201600-
ELSEWHERE

CITY           SKY/WX    TMP DP  RH WIND       PRES   REMARKS
HARRISBURG PA  CLOUDY    32  20  61 NW6       30.30S
BALTIMORE      CLOUDY    31  22  69 W3        30.33R
ANNAPOLIS      CLOUDY    33  23  66 NW6       30.34R
ANDREWS AFB    NOT AVBL
PHILADELPHIA   CLOUDY    33  21  61 NW5       30.33R
HENDERSON NC   LGT SNOW  34  25  69 N3        30.32R
GREENSBORO     FLURRIES  34  29  82 NE8       30.26F
ROCKY MOUNT    CLOUDY    37  27  67 NE6       30.32R
$$

VAZ100-201600-
MARINE

STATION/POSITION TIME  TEMP    WIND        PRES    WAVE   SWELL
                       AIR SEA DIR/SP/G            HT/PER HT/PER
                 (UTC) (F)     (DEG/KT/KT) (MB)    (FT/S) (FT/S)
CAPE MAY NJ      1500   34 42   50/  3/  7 1025.9F
LEWES DE         1500   35 42   30/  6/  7 1026.3R
15NM E FENWICK I 1500   36 46              1025.9R   2/ 4
OCEAN-CITY-INLET 1500   32 44  300/  6/  7 1026.5R
WACHAPREAGUE VA  1500   34 41  360/  2/  9 1027.0R
THOMAS POINT MD  1500   32 40  300/  5/  5 1028.3R
COVE POINT MD    1500   32      10/  5/  8 1027.0R
SOLOMONS ISLAND  1500      43                N/A
BISHOPS HEAD MD  1500   33 35  350/  4/  7 1026.1F
CAMBRIDGE MD     1500   34 40  360/  6/  7 1026.5F
LEWISETTA VA     1500   34 40  360/  5/  8 1026.7F
RAPPAHANNOCK LGT 1500          360/  7/  8 1027.2R
YORK RVR RNG VA  1500   36      20/ 10/ 12 1026.0F
YORKTOWN VA      1500   35 44  360/  5/  6 1026.6F
DOMINION TERM VA 1500   36      10/  4/  5 1026.7F
KIPTOPEKE VA     1500      49   70/  5/  7   N/A
CHES BAY BRIDGE  1500   38 46   20/  7/  9 1026.2F
CAPE HENRY VA    1500   37      10/  8/ 10 1025.4F
CHESAPEAKE LGHT  1400   38     340/  9/ 10 1026.9R
WILLOUBY STN VA  1500   37      20/ 10/ 12 1026.9F
S CRANEY ISL VA  1500           20/  7/ 10 1026.4F
CAPE HENRY BUOY  1400      48                N/A     2/ 4
CAPE CHARLES BUO 1500      47                N/A     2/ 4   2/ 4
64NM E OF VA BCH 1500   43 54  340/  8/ 12 1025.8R   2/ 5   2/ 5
DUCK PIER NC     1500   40 46  350/ 10/ 11 1025.3F
44100 DUCK FRF   1500      52                N/A     3/ 5
44056 DUCK FRF   1500      46                N/A     2/ 5
OREGON INLET NC  1500   43 49  330/  5/  8 1026.0F
HATTERAS NC      1500   44 52   10/ 12/ 14 1025.8S
DIAMOND SHLS NC  1500   48                 1025.6R   3/ 7
CAPE LOOKOUT NC  1400   46      20/ 11/ 14 1024.5R
$$


USA.gov is the U.S. government's official web portal to all federal, state and local government web resources and services.